RH
48 52 53 57 68 72 75 75 77 81 91 93 85 78 79 76 75 90 95 88 76 56 40 31 26 20 20 27 27 23 25 23 18 20 18 18 21 26 27 30 29 29 31 34 42
48 48 51 58 69 74 73 78 84 87 94 91 88 86 79 81 81 86 95 95 86 65 44 32 28 21 22 27 26 23 24 18 14 16 16 18 21 24 29 30 28 26 28 36 40
39 41 47 56 68 76 78 82 95 90 89 91 89 89 89 91 86 81 88 96 92 72 45 35 29 22 23 26 25 24 20 17 15 16 16 17 21 24 27 27 26 26 30 36 39
35 41 53 60 66 78 82 88 90 91 93 82 83 86 84 82 83 81 87 95 95 75 45 38 30 25 25 26 25 24 20 17 15 17 17 18 21 24 23 22 24 27 33 34 34
38 42 48 51 59 66 79 85 90 94 92 94 83 77 74 69 74 84 88 91 91 76 45 38 32 27 27 25 24 23 19 17 16 16 18 18 21 23 22 22 24 28 31 30 30
39 42 42 46 51 51 56 73 82 81 80 77 83 82 72 78 81 83 88 90 84 70 47 38 35 29 27 27 25 22 19 18 16 16 16 17 19 20 21 22 25 28 29 29 27
38 40 39 40 42 45 48 55 65 66 65 65 67 76 80 78 76 78 84 82 73 61 46 40 41 31 27 28 25 20 20 19 18 17 18 17 18 20 21 22 24 26 25 25 24
34 37 38 41 41 44 46 47 55 62 64 61 63 68 74 74 78 82 80 77 70 60 49 48 41 32 28 27 26 23 23 25 22 20 18 19 22 20 20 21 22 23 21 21 21
32 33 36 41 46 47 47 47 49 57 54 56 54 56 62 74 76 69 69 66 64 57 58 51 39 34 30 29 30 28 29 26 24 22 20 20 19 18 19 22 23 23 22 21 21
31 32 34 39 47 50 48 48 49 50 52 51 48 48 60 67 66 65 62 56 55 66 57 48 40 34 33 36 39 26 30 26 25 22 20 20 17 18 19 21 22 22 21 20 18
30 35 38 38 44 46 47 44 50 52 46 47 47 48 57 65 60 57 58 57 64 66 54 48 45 42 36 32 26 26 26 26 24 22 18 19 18 17 19 20 20 20 19 17 16
27 31 35 35 40 46 45 40 48 52 47 45 43 45 55 64 60 64 59 69 65 55 48 43 49 41 35 30 26 25 26 24 22 22 17 21 18 17 17 17 18 18 18 16 15
23 26 29 33 38 42 45 42 43 46 46 40 40 42 48 56 66 61 68 62 52 48 44 40 43 39 33 30 26 31 26 24 21 22 21 19 16 15 16 17 16 15 14 14 13
19 23 28 30 37 43 48 41 41 46 48 43 41 42 42 45 54 54 56 52 46 45 42 41 40 37 33 34 28 25 28 23 22 24 25 24 26 16 17 17 17 16 15 14 14
18 16 22 28 31 34 44 45 48 56 56 42 40 46 38 36 45 51 40 42 45 39 34 41 41 36 36 35 30 29 26 25 26 32 30 27 30 18 18 17 17 17 16 16 15
17 19 21 22 27 30 38 46 50 55 51 50 49 48 38 34 33 34 32 33 33 33 35 38 37 37 35 34 31 32 28 29 32 35 33 33 34 28 19 20 19 18 17 17 18
13 23 24 23 25 27 31 43 57 58 45 44 49 49 41 38 36 35 36 35 36 35 37 34 37 37 35 31 31 30 30 39 33 38 33 42 39 25 21 21 21 21 19 18 18
13 19 26 27 28 31 35 44 55 52 48 42 44 45 47 42 40 38 35 41 36 34 41 38 36 40 39 36 31 37 32 38 22 36 42 40 37 28 22 21 22 22 21 21 21
16 17 25 32 31 33 34 48 54 51 43 39 37 41 41 44 44 42 42 42 39 37 35 41 43 41 41 37 34 31 37 34 44 46 42 37 26 21 24 25 26 27 26 25 24
28 16 18 24 30 31 33 44 43 49 46 42 39 35 35 39 40 43 43 42 40 38 38 38 42 41 41 36 36 32 33 32 38 31 34 35 35 38 33 31 31 30 27 26 26
30 29 20 19 21 27 41 39 37 37 44 47 44 39 37 35 35 37 37 39 39 37 38 37 36 43 39 35 35 38 38 37 35 38 41 40 37 33 33 31 30 28 28 25 23
26 32 32 24 20 26 33 35 33 32 33 39 47 43 41 39 38 38 36 34 33 32 32 33 36 44 34 37 36 34 37 38 44 40 54 51 43 31 34 33 30 29 25 22 21
28 29 30 31 36 26 24 27 30 30 29 30 34 41 45 46 44 44 43 39 35 34 32 32 33 40 29 36 41 42 39 39 41 46 51 48 39 28 27 27 27 25 24 23 22
29 32 31 32 38 41 26 22 22 25 27 28 28 27 31 37 40 45 47 45 42 40 40 36 40 33 38 35 44 48 47 44 40 51 45 45 32 25 26 28 28 26 26 23 26
27 33 33 32 35 37 39 38 24 20 21 24 26 28 29 26 26 27 33 33 32 34 36 37 38 43 43 41 43 42 42 47 44 35 33 27 32 27 27 29 29 30 30 29 28
29 30 31 34 31 33 37 38 41 41 25 20 22 24 27 29 34 36 36 32 28 29 29 31 31 36 34 35 39 41 38 41 42 39 37 36 34 29 30 35 36 34 30 27 26
30 34 32 33 34 31 32 37 38 41 43 42 30 24 24 26 29 31 33 34 35 38 40 42 44 43 36 39 36 31 31 34 36 38 35 43 33 33 37 37 32 27 24 23 22